Simultaneous Nadir Overpasses (SNOs) Predictions

Prediction of SNOs between AQUA and GOES-15 Satellite Orbit:

Table of predicted SNOs for the next 14.0 days since TLE Epoch: 10/7/2016
Index Date Time (AQUA) AQUA Lat,Lon GOES-15 Lat,Lon Distance(km) Time Diff (sec)
1 10/07/2016 22:22:20 0.47,-131.88 -0.25,-135.16 373.67 80
2 10/08/2016 10:43:35 0.60,-137.04 0.23,-135.17 211.58 80
3 10/10/2016 10:31:23 0.01,-134.08 0.22,-135.11 117.69 80
4 10/10/2016 22:52:47 -1.13,-139.27 -0.20,-135.06 478.79 80
5 10/12/2016 10:19:12 -0.59,-131.11 0.22,-135.04 446.43 80
6 10/12/2016 22:40:36 -0.46,-136.32 -0.20,-134.99 150.08 80
7 10/14/2016 22:28:24 0.15,-133.35 -0.20,-134.92 178.11 80
8 10/15/2016 10:49:39 0.97,-138.50 0.18,-134.93 406.69 80
9 10/17/2016 10:37:27 0.35,-135.54 0.19,-134.85 79.30 80
10 10/19/2016 10:25:15 -0.28,-132.59 0.19,-134.76 247.35 80
11 10/19/2016 22:46:39 -0.83,-137.78 -0.17,-134.69 350.64 80




NCC Satellite Simultaneous Nadir Overpasses (SNOs) Prediction Service
